Theta_e
291 287 286 286 289 289 289 290 290 290 289 286 285 285 284 283 284 285 286 291 290 289 286 288 286 284 287 287 289 291 291 290 289 288 288 288 288 288 288 288 288 289 289 290 291 291 291 292 292 293 293 293 294 294 294 294 294 295 295 296 296 297 299 300 302 302 303 306 307 305 305 305 306 308 308 308 308 308 307 308 309 309 309 308 308 307
292 286 286 290 291 291 290 290 288 287 287 287 286 283 284 282 285 287 288 289 288 289 284 284 285 287 288 287 289 289 289 288 288 288 288 288 288 288 287 287 288 288 289 289 289 290 290 290 291 292 292 292 291 292 293 293 293 294 294 294 294 296 296 297 298 300 300 300 302 302 301 300 300 300 300 301 302 304 304 303 303 305 306 306 305 305
286 286 289 291 292 290 289 288 287 287 287 285 285 284 282 284 284 287 288 287 288 288 287 284 286 288 286 287 288 288 287 288 288 288 287 287 287 287 287 287 287 287 287 287 288 288 288 289 289 290 291 291 291 291 292 292 293 293 293 293 294 294 294 295 296 297 296 297 297 297 297 298 297 297 298 297 297 298 298 298 298 298 300 301 301 301
285 284 290 292 290 289 288 287 285 286 285 284 284 283 284 284 285 283 285 286 289 287 285 284 285 287 285 287 287 288 287 287 287 288 287 287 287 286 286 286 286 286 285 285 286 286 287 287 288 289 289 290 290 291 291 291 291 292 292 292 293 293 293 294 294 295 295 296 296 296 296 295 295 293 294 295 295 294 294 294 294 294 295 296 296 297
289 288 290 290 289 289 288 287 286 285 284 283 285 284 284 285 285 286 286 285 285 287 284 285 284 284 283 286 285 286 288 287 287 287 287 287 287 287 286 286 286 285 285 285 285 285 286 286 286 287 288 289 289 289 289 290 291 291 291 291 292 292 292 293 293 294 294 295 295 295 295 295 294 294 293 292 292 292 292 292 292 291 292 293 292 293
287 291 290 288 287 287 287 286 286 286 283 282 284 288 288 287 287 284 284 286 282 282 282 284 279 276 279 281 284 286 285 285 286 285 285 286 286 286 285 285 285 285 285 284 284 284 285 285 286 286 287 287 287 288 288 289 290 290 290 291 291 291 292 292 292 293 293 293 292 292 291 290 290 289 289 288 288 289 289 289 290 291 291 291 291 291
289 291 292 291 287 286 286 286 285 288 283 284 287 287 289 287 285 284 284 285 279 279 284 284 280 275 279 281 284 284 283 284 284 284 285 285 285 284 284 284 284 284 284 284 284 284 284 284 285 285 285 286 286 287 288 288 288 289 289 289 290 290 290 291 291 292 292 291 291 290 289 289 288 287 288 288 289 289 289 289 289 289 289 289 289 289
289 288 288 288 287 285 285 284 286 288 286 283 285 284 286 285 285 283 283 285 281 280 282 282 283 278 276 284 285 285 283 282 283 283 284 284 284 284 284 284 283 284 283 283 283 284 284 284 284 284 285 285 285 286 287 287 287 287 287 288 288 289 289 289 290 290 290 289 289 288 288 288 287 286 286 287 287 287 287 287 286 287 287 287 287 287
289 287 286 286 287 286 286 288 286 289 287 284 286 284 284 285 283 282 284 281 281 282 279 279 281 280 276 280 283 285 282 281 282 282 283 283 284 283 283 283 283 283 283 283 282 282 283 283 283 284 284 284 285 285 286 286 286 286 286 286 286 287 287 287 288 288 288 288 287 287 286 285 286 286 285 285 286 285 286 285 286 286 286 286 286 286
289 290 288 289 287 286 287 285 286 290 287 287 284 284 283 283 282 281 281 282 280 279 275 280 282 278 279 280 282 283 283 282 282 283 283 283 283 283 283 283 283 283 283 283 283 283 283 283 283 283 283 284 284 284 285 285 285 285 285 285 285 285 286 286 286 287 286 286 286 285 285 284 284 285 284 285 284 284 284 284 284 284 285 285 285 285
289 290 290 288 288 288 286 286 285 288 287 286 285 285 282 281 280 279 278 277 278 272 278 283 282 284 277 280 281 281 282 283 283 282 283 283 283 283 283 283 283 283 283 282 282 282 282 282 282 283 283 283 283 283 284 284 284 284 285 284 284 284 285 285 285 285 285 286 285 285 284 284 284 284 284 284 283 284 284 283 283 283 284 284 284 284
287 288 289 288 290 287 287 286 285 284 284 285 285 282 283 284 277 277 271 275 273 271 275 277 281 282 275 277 281 281 282 282 285 283 282 282 282 282 282 283 283 283 283 282 282 282 282 282 282 282 282 282 282 283 283 283 284 284 284 284 284 284 284 284 285 285 285 285 285 285 285 284 284 284 284 283 283 284 284 284 283 283 283 284 284 284
286 287 286 288 290 290 285 285 285 283 282 284 282 282 279 273 274 272 271 273 272 274 278 278 280 280 281 281 282 281 282 282 282 285 284 283 282 282 282 283 283 283 282 282 282 282 282 282 282 282 282 282 282 282 282 283 283 284 284 284 284 284 284 284 285 284 284 284 284 284 284 284 284 284 284 284 283 284 284 284 284 284 284 284 284 284
284 282 285 287 289 289 289 287 282 284 282 283 284 279 275 272 271 267 268 265 269 274 277 281 282 279 279 282 280 280 282 282 283 285 285 284 283 282 282 282 282 282 282 281 282 282 282 282 282 282 281 281 282 282 283 283 283 283 284 284 284 284 284 285 285 285 284 283 283 283 284 284 284 283 284 284 284 284 284 284 284 284 284 284 284 284
277 281 285 287 286 288 290 290 288 283 282 283 282 285 282 273 265 268 264 273 273 273 277 278 276 272 277 281 279 281 281 282 282 283 283 283 282 282 281 281 281 281 281 281 281 282 282 281 281 281 281 281 281 283 283 282 282 282 282 283 283 283 283 283 283 283 283 283 283 283 283 284 284 284 284 285 286 285 285 285 284 285 284 284 285 285
282 281 285 287 287 288 288 287 285 283 284 282 281 282 279 281 278 276 269 268 268 272 272 274 276 276 280 280 281 280 281 281 282 282 282 282 281 281 281 281 281 281 281 281 281 281 281 281 281 282 282 282 283 283 283 283 283 283 282 282 282 282 282 283 283 283 284 284 284 283 283 284 285 285 285 285 286 285 286 285 285 284 285 285 285 285
282 280 284 287 287 286 287 286 288 286 282 283 283 279 282 283 282 271 272 271 271 269 273 270 277 281 280 281 279 280 280 280 280 281 281 281 281 280 280 280 280 280 280 280 280 280 280 281 281 282 282 282 283 283 284 283 283 282 283 284 284 284 284 284 284 284 284 284 285 284 284 284 285 285 285 285 285 285 285 285 285 285 285 285 285 285
283 280 283 285 287 288 285 285 285 284 286 284 278 283 284 284 282 280 274 270 266 269 272 272 276 278 279 275 279 279 278 279 279 279 280 280 279 280 280 280 280 280 280 279 279 280 280 281 281 282 282 282 282 282 283 284 284 283 284 285 285 285 284 285 285 285 285 285 285 285 284 284 284 284 284 285 284 285 285 285 285 285 284 284 284 285
288 282 283 285 286 287 286 288 287 286 287 284 281 284 284 277 278 277 270 269 268 266 267 272 275 276 278 280 277 278 278 279 279 279 279 280 280 280 280 280 280 279 279 280 280 280 281 281 282 282 282 283 284 284 284 284 285 286 285 285 285 285 285 285 286 285 286 286 286 285 285 284 284 284 283 283 283 283 282 283 283 283 283 283 283 283
288 283 281 286 286 287 285 285 281 283 288 286 286 285 283 281 276 273 277 271 270 266 264 269 270 275 279 280 281 282 281 281 280 279 280 281 281 281 281 281 280 280 280 280 281 282 282 283 284 284 285 285 286 286 286 286 286 286 286 285 285 285 285 285 285 285 285 285 285 284 284 284 283 283 283 282 282 282 281 281 281 281 281 281 282 281
287 286 277 282 285 285 283 284 283 285 282 283 284 280 283 279 281 278 278 274 276 264 266 268 272 273 276 279 282 282 282 282 281 281 282 282 282 282 282 282 281 281 282 282 283 283 284 284 285 285 285 286 286 286 286 286 285 286 285 285 284 284 284 283 284 284 284 284 283 282 281 281 282 282 282 281 282 281 280 280 281 281 280 280 280 280
286 285 282 282 284 283 282 284 286 286 288 286 286 283 285 280 277 276 277 279 273 274 271 269 274 278 278 282 281 281 281 283 283 283 283 283 283 283 283 283 283 282 283 283 284 284 284 284 285 285 285 284 284 284 284 285 284 284 284 284 283 283 283 283 282 282 282 282 282 281 281 281 281 281 281 280 280 280 280 280 280 280 281 280 280 281
289 282 283 280 283 285 286 287 285 284 285 284 285 284 285 282 282 277 276 276 274 278 276 274 272 278 280 280 280 282 282 283 284 283 282 283 283 283 284 284 284 284 284 284 284 285 285 285 285 284 284 283 283 283 283 283 283 283 282 283 282 282 281 281 280 280 281 281 281 280 280 280 280 280 279 279 279 279 279 279 279 280 279 279 279 280
292 284 281 283 280 280 284 284 285 284 286 286 284 281 283 284 284 284 283 278 276 272 273 272 275 279 282 282 280 280 280 282 283 283 283 284 284 284 283 284 284 285 285 285 285 286 285 285 284 284 283 283 282 282 282 281 281 281 280 280 281 280 280 280 281 281 281 280 280 280 279 279 278 278 278 277 278 277 277 277 278 278 277 277 277 277
284 283 284 280 279 281 281 284 285 285 283 281 282 282 281 281 279 277 276 275 277 277 279 278 275 281 283 279 281 280 281 281 282 283 284 284 284 285 284 285 285 286 285 285 285 284 283 283 282 282 282 281 281 280 279 279 279 278 278 279 279 279 279 279 279 279 279 279 278 278 277 277 277 276 276 276 276 276 276 276 276 276 276 276 275 275
285 283 283 280 278 276 275 275 278 281 284 283 279 279 282 283 281 281 277 277 277 282 281 278 279 285 283 280 282 281 281 282 282 282 282 283 284 284 284 284 284 284 284 284 283 282 282 282 281 281 280 279 278 278 278 278 278 278 278 278 277 277 278 278 277 277 277 277 276 276 275 275 274 274 274 274 274 274 274 274 274 274 274 274 273 273
285 284 285 285 283 282 284 282 284 284 283 282 282 282 282 281 282 281 277 276 278 279 279 282 281 280 283 281 280 279 278 281 282 282 283 284 282 282 282 283 283 283 283 282 282 282 281 281 280 280 279 278 277 277 278 278 278 277 277 276 276 276 276 276 276 276 275 274 274 274 273 273 272 273 273 273 273 273 273 273 272 272 272 272 271 271
283 283 285 285 285 285 281 280 283 285 284 283 283 283 280 280 279 280 281 278 283 279 277 284 281 278 281 282 281 280 281 280 281 281 282 282 282 283 284 283 284 280 280 280 280 280 281 281 280 279 277 277 277 277 278 278 278 277 276 275 275 274 274 275 274 273 273 273 272 272 272 272 272 272 272 272 272 272 271 271 270 270 270 270 270 269
282 283 283 282 282 282 280 282 282 282 281 280 280 280 280 280 277 278 275 280 280 279 278 281 280 279 281 283 281 282 283 282 283 282 284 285 285 282 281 281 280 280 280 280 280 280 280 280 280 278 277 277 277 277 277 277 276 275 275 274 273 273 273 273 272 272 272 271 271 271 271 271 272 272 271 271 270 270 269 269 269 269 268 268 268 268
281 276 276 279 277 279 279 280 280 280 279 280 280 280 281 280 280 280 280 281 281 281 282 282 281 280 282 283 280 280 282 283 282 283 282 283 283 283 282 281 280 279 279 279 280 280 280 280 279 277 277 277 277 278 277 277 275 274 273 273 273 272 273 271 271 271 271 270 270 270 270 270 270 270 270 269 268 268 268 267 267 267 266 266 266 266
286 280 282 279 279 277 276 279 280 280 280 280 281 281 281 280 279 280 281 280 279 278 280 280 279 279 284 282 281 279 277 280 280 279 282 283 283 282 281 280 280 279 279 279 279 279 279 278 277 277 277 277 277 278 277 276 274 273 272 272 272 271 271 271 270 270 269 269 270 270 270 270 269 269 268 268 267 266 266 266 265 265 265 264 265 265
284 278 277 275 276 275 276 277 277 277 278 276 276 278 279 277 277 279 277 278 276 276 278 275 272 276 282 278 279 276 277 279 281 282 282 281 280 281 281 281 280 279 278 278 279 278 278 277 277 277 277 277 277 277 276 275 273 272 271 271 271 271 271 270 270 269 269 269 269 269 269 268 267 266 266 266 265 265 264 264 263 263 263 263 263 264
281 278 275 273 275 273 274 273 274 273 274 274 276 278 277 278 280 279 277 278 279 280 275 272 274 280 279 279 278 278 277 278 278 279 279 279 279 280 281 281 281 279 279 278 278 278 278 277 277 278 278 277 277 277 275 274 272 271 271 271 271 270 269 269 268 267 267 268 267 267 267 266 265 264 264 264 264 263 263 263 263 262 262 262 263 263
279 281 276 277 275 271 272 272 272 270 266 272 278 277 278 276 277 275 276 278 278 279 275 278 278 277 276 276 277 278 278 278 279 279 280 281 280 278 279 279 279 279 278 279 279 278 278 277 278 278 278 277 276 276 274 273 272 271 271 270 270 268 268 267 267 266 266 266 266 266 266 265 263 263 263 263 263 262 262 261 261 262 262 262 262 262
280 280 278 276 274 271 270 271 271 267 270 277 275 276 276 276 275 276 276 277 276 276 278 277 277 276 277 279 279 279 279 278 276 276 277 275 278 279 279 278 278 278 278 278 277 277 277 278 277 277 275 275 273 272 271 271 271 270 269 269 268 267 266 266 265 265 266 265 265 264 263 264 262 262 262 262 262 261 261 261 261 261 261 261 261 261
279 279 277 275 274 272 270 272 267 269 278 277 278 274 276 275 275 275 273 276 276 276 276 276 277 278 279 279 278 276 275 275 275 275 275 274 276 279 278 278 278 278 277 278 278 278 277 277 277 277 276 274 272 271 270 270 269 268 267 267 267 265 265 264 264 264 264 264 264 263 264 262 261 261 261 261 261 260 261 261 260 260 261 261 261 261
282 278 278 275 279 271 273 272 273 275 276 279 279 274 275 274 273 273 268 274 277 276 276 276 277 278 277 276 275 273 274 274 275 276 275 275 276 275 277 278 277 277 278 278 278 278 279 278 277 276 274 272 271 270 269 269 267 266 265 265 265 264 264 263 263 264 264 263 263 263 262 262 261 260 260 260 260 259 260 260 260 260 260 260 260 260
282 280 280 278 275 277 271 271 269 268 268 274 275 275 277 276 276 275 273 269 273 269 274 276 276 277 276 273 273 273 274 274 271 274 276 276 276 276 276 276 275 276 277 276 277 277 277 276 275 274 273 271 269 269 268 266 266 265 264 264 263 263 263 261 262 263 263 263 262 262 262 262 260 260 260 259 259 259 260 260 260 259 260 259 259 259
279 281 280 280 275 273 271 270 270 269 271 276 272 274 275 275 276 273 268 265 273 269 272 275 275 273 274 273 273 273 272 266 269 274 278 276 275 276 277 276 275 275 276 277 278 277 276 275 274 272 270 269 267 266 266 264 264 264 263 262 262 262 262 262 262 262 262 262 263 262 261 260 259 260 259 259 259 259 259 259 259 259 259 259 259 259
274 273 276 274 273 275 274 271 269 272 270 270 267 272 274 273 274 271 258 260 265 268 270 273 273 272 272 273 274 273 272 265 270 275 277 277 277 276 276 276 275 275 276 276 276 277 275 272 270 269 268 268 267 265 264 263 263 262 262 262 262 261 261 262 262 262 262 262 262 260 259 259 259 259 258 259 259 259 259 259 259 259 259 258 258 258
274 272 275 272 274 274 275 271 271 270 272 268 272 272 273 272 271 262 264 264 270 272 272 273 274 274 274 273 274 270 274 277 278 278 276 275 275 276 275 275 276 277 277 276 275 275 272 271 271 270 269 268 265 264 263 262 262 261 261 261 261 261 262 262 262 262 261 262 260 259 259 258 257 258 258 258 258 259 258 258 259 258 258 257 258 257
266 269 270 273 271 271 272 270 270 274 274 271 272 275 275 273 264 266 271 273 275 274 273 275 275 275 274 275 275 276 278 278 277 274 274 276 277 277 276 275 274 273 273 273 274 272 271 270 269 267 265 264 264 263 262 262 261 261 261 260 260 261 262 262 261 261 259 259 258 258 257 256 257 257 257 257 257 257 257 258 258 257 257 257 257 256
269 268 267 271 273 271 270 268 269 265 275 277 276 274 276 268 269 272 273 274 275 275 274 273 275 275 275 275 275 276 277 277 275 275 275 275 275 276 275 274 274 274 272 271 271 270 270 269 267 266 265 264 263 263 262 260 259 259 259 259 261 261 261 261 260 260 259 258 257 256 256 256 255 256 256 256 256 256 256 257 257 256 256 256 256 256
270 262 258 264 274 266 269 266 267 274 275 277 278 272 272 277 276 275 276 274 275 274 274 274 274 276 275 276 276 276 276 276 274 274 274 274 274 274 274 274 274 273 273 273 273 271 269 269 267 265 263 263 262 262 262 260 259 258 258 260 261 260 259 259 258 257 256 255 255 255 255 254 255 255 255 256 256 256 255 256 256 256 255 256 255 255
273 268 267 265 269 268 267 273 276 275 276 277 279 278 278 280 278 275 277 277 276 275 274 273 276 275 275 276 276 276 276 276 276 276 275 276 276 274 274 274 274 274 273 272 271 269 269 269 266 264 262 262 261 261 260 259 258 257 257 259 260 259 258 257 255 255 254 253 253 254 254 254 254 254 255 255 255 255 256 256 255 255 255 255 255 255
270 273 271 270 268 272 273 275 274 273 274 277 278 278 278 278 277 276 277 277 275 276 276 276 276 276 275 275 275 274 275 276 276 275 274 274 274 274 274 273 272 271 270 269 267 267 267 265 263 262 262 260 260 260 259 258 257 257 257 258 258 257 256 255 254 254 253 253 254 254 253 254 254 254 255 255 255 255 255 255 255 255 255 255 255 255
272 272 270 270 270 269 266 272 273 275 273 275 278 279 278 277 277 277 276 277 278 277 275 276 277 277 276 274 275 276 276 276 275 275 275 274 274 274 274 274 273 272 270 269 268 265 263 262 262 261 260 260 259 258 257 256 256 257 257 256 258 257 254 253 253 253 253 253 253 253 253 253 254 255 255 254 255 255 255 256 255 255 255 255 255 255
270 274 271 272 269 270 270 272 273 275 274 276 278 278 278 279 278 275 277 277 278 277 276 277 275 275 274 273 274 275 276 276 275 275 275 275 275 274 274 273 273 270 269 268 266 264 262 263 263 261 259 260 259 259 257 256 256 256 256 255 257 254 252 253 253 253 252 253 252 253 253 253 256 256 255 255 254 254 255 255 255 254 255 255 256 256
273 274 265 268 271 272 273 274 274 273 275 276 276 276 279 280 280 277 276 276 275 275 275 274 274 276 275 276 276 275 274 275 275 275 275 275 274 273 273 273 272 271 268 265 263 263 264 263 262 260 259 260 259 258 257 256 256 254 256 257 254 253 252 253 254 254 251 251 252 253 254 254 254 254 254 254 254 254 255 255 255 255 256 258 259 259
271 272 272 269 268 264 267 273 275 267 270 276 277 278 278 277 277 276 275 273 274 274 275 275 275 275 275 276 275 275 274 275 275 274 274 275 275 275 274 272 269 268 266 265 263 262 262 260 260 259 258 259 258 257 257 256 255 255 257 254 253 253 252 253 252 251 251 252 252 252 253 253 253 253 254 254 254 254 255 259 262 262 261 261 265 268
274 275 274 271 272 269 274 277 277 277 277 277 278 278 278 277 275 275 275 276 276 276 276 275 275 275 273 274 274 274 274 275 276 275 274 274 274 274 274 271 268 266 265 263 262 260 260 259 258 257 257 258 257 257 256 256 255 254 254 255 254 253 252 251 251 251 252 252 252 253 254 253 253 253 253 253 254 254 254 254 256 262 265 266 266 268
Wind_Speed
1 4 5 8 10 9 8 12 13 8 1 1 1 2 5 5 6 5 3 8 0 2 6 7 4 4 7 2 5 5 3 7 6 7 6 5 5 5 5 5 5 7 6 4 5 8 9 9 9 8 9 9 11 13 13 14 14 13 11 13 14 10 11 10 9 9 8 7 7 10 10 9 8 8 9 10 9 10 9 10 10 10 9 8 9 7
3 6 8 11 9 11 11 7 4 3 1 2 3 3 7 3 10 4 4 1 1 3 3 0 3 8 5 2 4 3 5 7 4 5 6 5 4 4 5 5 6 3 3 7 10 10 10 10 11 10 10 12 15 13 13 13 12 11 13 13 11 11 11 11 9 8 10 7 5 7 7 8 8 10 10 9 10 9 10 12 12 10 10 10 9 8
3 8 10 13 9 1 0 3 5 6 7 2 4 3 3 8 4 9 6 3 2 2 8 2 3 9 2 2 4 6 6 3 4 3 3 4 5 4 5 4 4 6 7 8 8 9 9 10 11 10 10 10 9 9 11 10 13 14 13 11 11 11 11 10 9 9 9 7 8 9 7 7 8 8 7 8 8 9 11 12 12 11 11 11 11 11
4 5 15 12 1 4 2 2 3 1 1 4 1 1 8 3 2 6 4 3 2 1 2 1 5 9 1 3 7 5 3 3 5 6 7 6 6 6 5 4 4 6 7 9 8 8 8 9 9 10 10 9 9 11 12 12 12 10 11 11 12 11 11 10 10 8 6 7 7 8 9 10 11 6 6 9 12 13 14 14 12 13 11 12 11 12
12 6 2 2 5 5 6 2 4 4 5 2 5 5 5 4 5 8 5 2 2 0 1 2 5 7 3 3 2 3 3 5 4 5 6 6 6 4 4 5 6 6 5 6 7 8 8 10 10 9 8 8 10 10 11 10 10 9 11 11 11 11 11 10 10 9 7 8 9 7 9 8 10 13 12 12 12 10 9 11 13 11 11 11 12 11
8 8 2 4 1 2 4 4 5 6 3 3 6 12 10 7 7 5 4 4 6 3 2 2 4 4 2 4 3 3 2 3 2 5 5 5 6 5 6 6 5 6 5 5 5 6 6 7 7 9 10 11 10 11 10 9 10 11 11 12 12 12 12 12 12 11 12 11 11 12 12 11 10 11 12 11 9 10 10 8 6 11 12 11 11 11
7 3 5 6 4 3 3 4 3 8 5 1 6 8 11 7 4 1 1 2 2 2 1 2 1 7 5 3 4 3 3 3 2 4 3 4 4 4 4 4 4 5 5 5 6 6 7 7 8 10 11 9 11 9 7 9 11 12 12 12 13 12 11 12 12 12 11 13 12 13 12 10 10 10 7 5 6 7 6 8 11 9 11 11 12 11
2 3 2 2 3 3 3 5 5 9 6 4 2 3 4 4 5 4 4 5 4 1 3 1 3 5 4 8 3 7 6 3 3 3 3 3 3 3 3 3 4 4 4 4 5 5 5 6 7 10 8 9 8 5 7 10 10 13 12 13 13 12 12 11 11 14 12 12 11 12 12 11 11 10 8 8 7 8 8 12 11 10 10 11 11 11
3 1 3 3 3 4 8 5 4 7 5 3 0 5 4 6 3 4 2 2 1 1 7 5 1 2 4 5 3 7 5 2 2 2 1 2 2 3 3 3 3 3 3 3 4 5 5 6 7 6 9 6 7 8 10 9 9 10 11 12 13 14 12 12 13 13 13 12 11 11 10 12 8 8 7 7 9 10 10 13 11 11 10 11 12 12
1 1 3 7 6 8 3 1 6 10 5 2 4 5 6 6 6 2 2 1 1 1 6 5 3 4 7 4 0 0 2 4 5 5 4 3 3 1 2 2 3 3 3 3 3 3 5 5 5 4 5 9 8 7 7 8 8 9 10 13 16 13 11 10 12 13 13 12 11 12 12 13 10 8 8 9 10 9 8 10 10 9 9 9 10 10
1 4 5 4 6 4 4 2 2 0 1 4 4 5 4 7 3 3 6 2 2 4 7 11 9 7 6 4 5 5 5 1 7 2 3 2 2 1 1 1 1 3 3 3 3 4 4 4 5 5 10 7 7 7 8 9 9 8 10 12 16 11 10 11 11 12 13 11 11 11 11 11 11 9 9 10 10 8 9 9 8 7 6 6 7 7
2 1 0 2 3 3 3 4 3 2 2 4 2 2 2 2 5 2 3 4 1 7 5 3 5 4 7 4 2 2 2 3 9 11 11 8 5 4 3 2 1 1 2 2 3 4 4 5 7 6 8 7 7 7 8 8 7 8 8 11 14 11 10 10 10 12 11 11 11 10 10 11 10 10 10 11 10 9 9 8 8 5 6 7 6 7
3 6 2 5 3 8 2 6 3 4 2 4 5 4 2 4 5 3 2 2 6 5 1 2 3 1 10 5 0 4 4 4 4 6 14 12 9 6 4 3 2 1 2 2 2 3 4 5 5 6 6 6 6 7 6 7 7 7 8 9 14 10 8 9 9 11 10 10 9 9 9 9 8 9 9 8 8 6 8 7 8 9 9 8 10 9
6 2 0 3 2 3 6 6 2 0 1 5 6 5 5 1 0 4 5 2 5 5 4 1 1 4 3 3 2 3 5 4 6 5 7 10 11 9 5 3 2 2 2 2 2 3 3 4 4 4 4 4 5 5 6 6 6 6 7 8 12 9 7 7 8 9 9 8 7 6 7 7 7 7 7 6 7 5 5 5 5 5 6 6 6 7
1 3 5 6 4 1 6 7 8 5 7 7 2 8 7 8 6 5 4 4 4 3 2 4 1 5 2 2 2 3 3 3 3 6 7 5 5 4 4 3 2 2 1 1 2 3 3 3 3 3 3 4 4 5 6 5 6 6 7 8 9 8 6 7 7 6 8 6 6 6 6 6 6 6 6 5 4 4 5 4 5 4 4 5 5 5
5 5 4 3 1 3 7 0 6 6 4 1 2 5 5 7 6 4 4 2 1 2 3 1 5 3 3 0 1 1 3 5 4 7 7 7 4 4 4 4 4 3 2 1 1 1 1 1 1 2 3 4 4 5 5 6 6 7 6 6 6 7 6 6 6 6 6 5 5 5 6 6 6 5 5 4 4 4 4 3 4 4 4 3 3 4
2 3 1 5 2 2 2 4 1 3 6 3 4 5 6 2 5 2 2 1 1 2 8 2 6 3 1 1 3 1 4 3 3 4 5 6 5 4 5 4 4 3 3 2 2 2 3 2 1 2 3 4 4 4 5 5 5 6 5 6 6 6 5 6 5 5 4 4 5 5 5 5 5 5 5 5 4 4 4 4 4 5 4 4 5 5
4 5 1 3 4 0 1 1 3 3 3 7 1 7 1 1 3 3 5 1 4 4 7 3 6 3 1 7 1 1 2 3 3 4 5 4 4 6 6 5 6 5 4 3 3 3 3 3 3 3 2 3 4 4 4 5 4 4 4 5 7 6 7 5 5 5 4 5 6 6 5 4 4 4 4 4 5 4 5 5 5 5 6 7 6 5
3 5 3 1 1 2 2 2 3 1 1 4 3 2 4 3 1 1 4 4 3 4 6 4 1 4 7 6 2 4 7 9 6 5 5 7 8 9 8 7 4 4 4 4 4 4 4 4 4 4 4 4 3 3 4 4 4 3 3 4 5 7 5 5 4 4 4 4 4 5 6 6 6 5 6 5 5 6 7 8 8 8 7 7 8 8
1 3 4 1 1 1 1 3 5 3 1 1 2 2 0 2 2 4 6 3 4 4 2 8 1 8 5 5 11 9 13 10 9 9 12 14 13 11 9 8 7 7 6 6 5 5 5 5 5 5 5 4 4 4 4 4 3 4 3 4 4 4 4 4 4 4 5 4 5 5 5 6 5 5 5 5 6 7 6 6 7 8 9 8 7 7
2 2 5 1 2 2 2 3 8 9 6 0 1 1 0 0 2 3 1 4 3 3 4 3 9 4 4 4 7 6 8 14 17 17 14 13 12 10 9 9 8 8 8 7 7 6 6 6 5 4 3 3 3 3 3 3 4 3 3 3 3 4 4 4 4 4 4 5 6 6 6 6 6 7 7 7 7 7 6 6 6 6 6 5 7 7
1 0 5 0 1 4 6 2 3 5 8 9 11 9 10 6 2 2 9 3 1 3 5 2 13 6 4 2 2 3 4 10 13 11 11 10 10 10 9 8 8 9 8 8 8 7 6 6 5 4 2 2 3 3 4 3 3 3 3 2 2 4 5 5 6 6 5 5 5 6 6 7 6 7 9 9 9 9 9 9 9 9 10 10 9 9
4 2 2 6 7 8 4 1 2 3 1 1 5 6 5 2 3 3 8 5 1 4 3 3 0 8 1 1 1 3 3 7 9 7 7 9 10 11 10 8 7 9 10 10 9 8 7 6 5 5 5 5 5 5 4 3 3 3 4 4 5 6 5 4 3 3 4 5 6 6 5 7 8 8 8 8 7 8 9 9 9 9 10 10 10 10
5 1 3 5 2 3 2 2 1 0 1 1 1 2 4 6 7 8 7 5 5 1 1 1 5 4 1 1 3 2 3 4 7 10 12 11 11 9 7 8 10 11 10 9 9 7 7 5 4 4 4 5 4 5 3 2 3 3 4 4 5 6 4 5 5 5 6 6 7 7 8 8 7 7 7 7 6 7 7 7 7 7 7 6 7 8
2 2 4 5 2 1 3 3 2 1 2 1 2 2 1 2 4 2 4 1 1 7 6 7 14 8 1 1 2 3 3 4 7 6 8 11 9 9 10 10 9 9 9 10 9 8 6 6 6 6 5 6 5 3 3 3 3 4 4 4 5 5 4 5 4 6 6 7 8 8 8 8 8 7 7 7 7 7 7 7 7 7 7 8 8 7
4 3 5 9 13 11 7 7 8 8 7 2 0 1 3 5 5 3 4 3 8 4 9 4 10 2 1 1 0 2 2 1 2 4 4 5 7 10 8 9 9 9 10 10 8 8 10 9 7 6 6 4 4 4 4 3 4 5 6 6 4 5 6 7 7 7 7 7 6 5 5 4 4 3 3 3 4 4 4 4 4 5 5 5 7 7
2 0 5 6 8 10 7 2 1 3 4 5 3 5 5 2 2 3 2 3 9 0 5 8 5 0 6 2 2 2 2 5 6 6 9 7 5 5 5 7 9 9 9 10 10 8 6 7 8 8 5 4 4 4 4 5 5 5 6 6 5 5 5 5 5 5 4 3 2 1 0 1 2 2 2 3 3 3 3 4 4 4 4 5 5 6
2 2 7 9 10 8 2 3 3 3 5 3 5 6 5 5 6 8 11 8 4 3 11 6 4 2 9 6 5 4 6 4 4 4 4 4 5 9 10 7 5 4 4 5 6 9 12 10 8 7 6 5 5 5 5 4 5 5 5 6 4 4 4 3 3 2 2 2 1 1 1 2 3 2 2 3 2 2 3 3 3 3 3 3 4 4
4 6 2 5 5 3 1 3 2 1 1 3 5 5 7 6 5 10 3 3 5 7 14 3 6 6 6 8 3 8 8 9 9 8 11 12 7 3 3 5 7 8 8 9 11 10 10 10 9 7 7 6 6 7 6 6 6 5 5 4 3 3 3 2 2 2 2 2 2 1 1 2 1 1 1 2 2 2 3 3 4 4 4 4 5 5
3 4 2 1 2 1 1 1 2 1 2 3 4 8 8 7 8 4 5 7 9 8 6 7 4 9 10 9 4 7 6 6 5 4 2 2 6 7 7 7 8 9 10 12 12 11 10 10 8 8 7 7 8 7 7 6 6 5 6 4 3 3 1 2 2 2 1 1 1 0 0 1 1 1 2 3 4 5 6 6 7 6 6 6 6 6
4 3 6 1 2 2 4 5 3 2 1 6 10 11 11 2 1 6 7 6 2 5 10 10 10 15 13 4 3 3 2 2 1 3 8 9 7 6 6 8 9 10 11 10 9 10 9 7 7 7 8 9 8 9 8 7 6 5 5 4 3 2 1 2 2 2 2 1 0 0 1 1 2 3 5 5 6 5 6 8 7 6 6 5 5 7
2 3 4 1 2 3 1 2 3 3 1 4 11 17 10 3 9 10 8 4 5 10 10 7 7 12 13 1 1 2 2 4 8 9 7 6 6 6 8 10 10 10 10 11 11 9 8 8 8 9 10 9 9 8 8 8 6 5 5 3 3 2 2 2 2 2 2 2 2 3 4 5 5 6 6 6 6 6 6 6 7 7 7 7 8 6
3 6 4 2 4 4 1 2 3 4 3 9 19 16 6 11 14 2 1 4 11 9 6 9 12 10 6 0 1 4 6 8 7 7 7 7 6 7 10 11 10 10 11 11 10 10 10 10 10 11 10 8 9 9 7 8 8 6 6 5 4 3 3 2 3 2 2 2 2 3 4 5 5 5 5 5 6 6 6 7 7 7 8 8 7 7
3 6 4 3 4 1 2 0 2 3 7 16 1 4 8 9 7 8 11 14 8 7 7 8 9 3 1 3 6 9 8 7 8 9 8 7 7 7 8 7 7 8 8 9 10 11 9 7 7 8 9 9 7 6 7 6 7 6 5 5 4 3 3 3 2 2 2 2 2 3 3 4 4 5 5 5 5 5 6 6 6 6 6 6 7 7
6 4 5 2 5 4 1 2 2 9 16 0 3 0 3 4 4 9 11 8 7 7 8 8 8 6 8 9 9 8 5 4 4 6 5 6 5 6 8 8 7 9 11 10 9 7 8 9 8 7 6 7 7 7 7 5 5 6 5 4 5 3 4 3 2 2 2 2 2 2 3 5 4 4 4 5 5 6 6 6 7 7 6 6 7 8
5 5 3 1 4 3 4 6 7 12 2 2 4 3 2 4 1 0 7 10 12 11 10 9 10 10 10 8 6 2 4 5 2 3 4 3 5 7 5 7 9 8 9 10 12 10 10 10 13 13 11 6 7 7 5 7 6 5 4 3 5 3 3 3 2 2 1 1 1 2 3 3 4 4 4 5 5 5 7 6 6 7 7 6 6 5
7 4 3 3 3 7 5 8 14 5 14 16 13 3 6 5 6 7 8 11 8 5 7 7 10 10 6 4 1 1 0 0 1 4 2 4 4 4 7 8 8 10 10 9 10 12 11 10 9 8 8 8 8 8 7 5 5 5 5 4 3 4 2 2 2 1 1 1 2 2 2 3 3 4 5 5 6 7 7 8 8 6 5 8 7 8
1 8 4 6 5 6 7 7 2 1 11 14 3 1 0 3 3 4 3 7 4 1 5 8 8 9 2 0 2 2 1 1 5 7 5 5 4 5 5 4 4 5 5 5 3 3 5 5 5 6 9 10 7 6 5 4 5 5 4 3 3 3 2 1 0 0 0 1 1 2 3 3 3 4 5 5 6 7 7 6 6 6 5 7 9 9
3 2 2 9 4 3 2 6 8 9 10 5 2 4 1 0 5 5 2 6 5 3 4 7 6 3 4 5 4 3 3 2 7 7 8 5 4 5 6 7 4 4 5 8 11 10 8 8 8 8 7 8 8 6 4 5 5 5 4 3 2 2 1 1 2 2 2 2 1 3 2 3 3 4 5 6 7 6 8 7 7 6 6 6 7 9
2 0 2 4 4 8 7 8 9 4 7 3 3 1 2 2 4 5 3 7 2 4 4 6 5 5 5 6 6 7 7 5 7 8 5 8 8 7 8 7 4 4 5 5 3 5 8 8 10 6 8 9 8 6 6 4 5 4 4 3 3 1 2 3 3 2 1 1 2 2 3 3 4 4 5 7 7 6 7 7 7 7 7 7 6 8
5 1 4 12 11 10 12 7 4 6 5 3 7 5 3 3 5 3 9 6 3 5 6 5 7 8 7 7 7 7 9 8 8 6 1 4 3 3 3 3 4 7 9 9 7 8 8 7 9 11 10 7 7 6 5 4 4 3 3 3 2 3 4 3 2 2 1 2 2 2 3 3 3 6 6 6 7 7 7 6 7 8 7 8 7 7
4 2 5 2 8 11 8 7 9 7 7 7 4 8 6 4 3 10 5 4 9 7 6 9 8 7 8 10 8 9 8 10 6 2 3 7 11 8 5 3 3 3 3 3 6 7 8 7 6 5 5 5 7 6 5 4 4 3 3 2 4 4 2 2 2 1 1 2 2 3 4 4 4 5 5 5 6 7 8 6 6 7 8 7 7 9
9 8 7 8 3 2 2 6 3 9 5 14 9 3 1 5 6 3 3 2 6 7 9 8 8 6 8 7 8 9 9 6 5 6 5 6 6 6 7 6 7 8 8 6 4 5 9 9 8 8 9 7 7 6 5 5 4 3 3 4 6 2 3 2 1 1 1 2 3 4 4 4 5 6 4 6 6 7 9 7 7 7 6 8 8 8
5 5 3 4 5 6 8 9 11 7 5 11 13 8 6 11 7 5 5 3 5 6 6 6 7 8 7 9 9 9 9 9 5 3 4 4 6 5 4 6 5 5 5 8 10 12 10 9 7 8 7 7 6 4 5 6 5 4 4 6 2 3 2 1 1 1 1 3 4 4 5 5 5 5 5 6 7 6 8 9 7 7 6 7 7 8
8 9 8 6 5 9 9 10 3 5 8 6 7 5 8 10 6 7 5 6 6 6 5 4 7 7 8 9 9 9 7 8 10 8 9 10 9 9 9 11 12 13 13 13 10 9 9 12 12 9 7 6 5 4 5 4 6 4 5 2 3 2 2 1 1 1 3 4 4 4 4 4 5 5 5 6 6 7 7 8 6 8 6 5 7 7
3 3 3 3 5 3 4 6 0 0 3 8 6 5 6 7 5 4 7 7 5 5 8 7 7 7 8 8 8 6 7 8 8 7 7 8 7 7 6 5 5 5 4 4 4 8 7 5 6 8 9 5 5 5 4 4 5 6 4 2 3 2 2 2 1 2 4 4 4 5 4 5 6 5 6 6 5 6 6 7 8 7 8 6 7 7
4 2 2 3 2 3 8 2 6 7 3 6 11 10 6 4 6 6 6 7 7 5 6 6 7 8 9 8 10 10 11 10 9 9 8 7 7 7 8 9 10 11 11 12 10 9 8 8 9 9 9 9 5 5 4 5 4 5 3 3 2 2 2 2 1 2 3 4 4 4 4 5 6 6 5 5 5 5 6 6 6 7 7 7 8 8
5 5 4 7 3 7 7 5 7 1 1 5 9 9 10 13 10 6 7 7 7 5 5 8 6 6 2 4 10 10 12 11 9 10 8 8 9 8 8 9 9 7 7 5 7 8 6 9 10 10 9 9 7 5 5 4 5 4 4 3 2 3 2 1 2 3 4 4 4 4 4 5 6 7 6 5 5 6 6 6 6 7 7 7 8 8
4 5 5 5 7 6 1 2 4 2 3 6 6 6 9 10 9 7 8 8 6 6 7 5 4 7 6 10 8 9 9 11 10 10 9 9 8 7 8 10 10 10 9 10 9 11 13 11 10 9 8 6 5 6 5 5 4 4 4 4 3 3 2 2 2 2 3 4 3 5 4 4 5 6 6 7 6 6 6 8 7 8 9 8 8 8
3 9 4 4 7 2 5 8 5 2 5 8 11 14 14 11 6 7 4 5 6 8 8 8 9 8 8 8 7 7 9 11 10 7 9 11 10 10 8 8 7 7 7 5 7 8 6 7 9 9 8 5 5 6 6 5 4 4 4 4 3 3 3 2 2 2 4 4 4 4 4 4 5 5 6 6 7 8 7 9 14 12 9 8 14 19
11 15 7 10 11 7 7 12 9 8 6 8 9 9 8 5 5 7 9 10 10 10 10 9 9 9 7 10 8 9 10 11 13 9 8 8 10 11 10 7 8 8 9 9 9 7 8 7 6 6 6 6 5 6 6 4 4 4 3 4 3 4 3 3 2 2 3 3 4 4 5 4 5 5 5 6 6 6 8 10 9 13 17 17 16 17
Wind_Direction
120 144 179 210 225 208 209 202 208 222 153 106 114 166 230 233 271 283 270 254 118 306 243 255 270 252 270 32 323 343 2 58 64 74 73 64 58 48 46 45 39 42 31 350 12 19 16 16 15 16 21 21 34 30 27 35 31 32 31 38 33 20 27 34 34 38 38 42 51 53 53 61 38 41 46 44 30 37 34 33 39 44 46 45 47 40
79 194 228 227 226 207 214 220 255 315 258 223 247 247 273 215 265 252 257 273 279 176 292 309 292 273 275 3 9 350 48 41 34 76 74 77 67 56 49 41 34 26 24 22 26 19 21 20 18 23 26 23 34 20 28 33 32 33 34 40 32 25 32 33 33 49 54 40 42 75 59 71 48 41 40 36 28 29 35 32 31 27 28 36 38 34
193 205 231 235 234 53 96 167 198 208 241 204 216 241 292 267 254 274 269 322 275 130 259 340 299 277 316 21 38 52 59 52 39 40 60 75 64 51 39 36 30 39 36 31 27 25 24 20 23 29 28 32 35 35 35 31 37 34 36 36 38 34 34 29 24 40 54 54 51 64 54 58 76 56 59 60 45 39 40 38 33 29 28 30 33 29
251 282 242 244 107 211 278 142 134 129 110 168 135 147 235 231 357 301 288 0 5 185 272 257 290 282 81 94 68 41 63 76 57 59 60 55 62 54 41 28 29 40 38 38 28 26 22 26 27 29 30 26 34 36 34 32 37 38 37 36 40 39 37 35 28 37 38 60 70 66 70 65 70 65 45 52 42 35 36 33 30 32 28 30 33 28
213 224 253 129 172 171 229 195 157 166 237 263 192 213 240 243 227 188 252 316 293 10 62 327 294 298 278 216 73 73 76 73 42 54 51 45 49 51 53 49 35 41 33 37 32 26 27 32 29 28 28 28 39 38 38 35 39 44 39 38 44 44 39 36 32 36 44 50 49 52 59 55 50 37 34 36 31 31 36 38 32 26 29 32 34 30
269 261 121 77 91 165 194 246 207 147 225 295 228 208 222 219 233 252 316 354 9 337 335 62 341 304 310 290 174 172 51 44 33 58 46 42 37 34 42 39 28 36 32 39 31 29 27 36 34 35 34 37 36 37 33 38 43 47 44 42 43 45 41 36 32 33 48 52 54 50 47 45 48 46 32 31 20 20 29 32 27 33 31 31 34 31
221 231 162 199 151 155 179 219 244 163 193 97 271 199 218 217 204 173 197 80 290 236 304 41 120 266 323 300 201 167 101 87 38 55 54 39 42 40 38 36 29 27 27 23 33 30 36 28 44 41 39 34 39 31 31 43 46 48 49 47 48 49 45 39 38 37 47 55 56 60 63 61 59 64 44 37 35 38 30 39 37 33 33 32 35 32
172 279 152 106 131 141 179 251 235 160 133 232 253 146 148 147 169 191 152 173 231 259 294 31 170 245 294 276 208 158 124 106 78 56 49 53 53 47 50 37 34 28 24 25 34 32 33 40 45 51 42 40 39 30 43 49 47 51 51 53 51 51 51 47 47 48 44 58 58 63 63 61 60 60 55 39 39 41 40 44 33 33 30 31 33 32
156 223 158 168 168 169 214 211 166 163 146 220 215 118 140 159 168 143 130 169 250 27 281 323 300 304 263 258 30 143 127 215 183 155 140 106 74 68 58 46 39 37 26 32 38 36 35 41 43 51 54 45 49 43 48 49 51 57 59 62 59 54 51 49 54 58 52 56 58 63 65 67 57 60 56 53 46 44 37 46 32 32 26 27 27 29
318 203 220 167 153 217 215 345 167 163 199 262 144 90 76 71 65 91 105 96 338 55 263 246 182 239 277 274 73 318 285 218 195 190 174 162 127 107 83 63 57 39 40 29 38 38 45 41 47 49 72 55 45 46 53 54 56 57 62 65 64 56 54 52 57 63 62 59 60 62 59 65 58 51 52 52 49 44 39 48 39 32 30 24 23 20
241 289 164 125 193 207 131 78 136 136 124 123 87 66 18 36 29 28 59 89 51 264 243 216 201 176 290 272 201 151 216 202 144 127 163 158 125 112 118 102 75 73 46 45 42 42 53 45 52 47 60 58 49 48 55 55 54 57 61 68 68 63 61 56 58 63 65 65 63 67 65 65 63 56 56 53 47 42 41 45 39 36 32 31 29 21
347 2 281 250 90 105 101 83 28 84 103 116 98 122 45 332 11 37 347 41 156 266 262 287 216 173 191 289 298 239 315 246 175 174 176 171 172 174 169 173 135 82 69 57 55 52 53 59 50 53 59 54 51 54 57 59 59 60 61 69 75 62 61 60 60 64 64 66 66 68 68 68 66 62 58 55 49 40 44 39 38 31 37 32 31 31
275 230 239 324 202 133 96 77 347 25 18 83 82 57 118 264 28 306 21 269 212 225 297 0 127 31 242 227 194 313 310 319 282 189 173 163 165 173 178 175 158 99 66 58 61 65 57 67 66 60 63 62 55 59 62 64 69 68 66 67 77 66 60 62 62 66 64 66 64 67 69 70 69 69 69 65 61 45 45 34 31 27 27 18 21 16
279 287 9 254 350 213 133 146 190 89 227 124 154 142 105 254 236 268 269 261 311 287 291 196 359 281 250 294 87 275 305 292 277 172 153 157 161 165 165 158 126 81 70 65 70 69 71 68 69 71 79 80 79 73 72 72 75 75 75 71 77 75 63 68 67 67 69 64 66 65 69 69 67 66 67 65 67 58 60 50 44 38 31 26 25 10
241 333 269 145 230 181 173 191 179 162 159 207 103 152 185 141 155 227 191 221 226 210 281 280 52 229 129 218 319 265 293 346 35 106 120 122 133 139 138 124 116 109 99 79 80 90 95 88 89 105 100 92 94 91 85 81 80 83 77 74 79 77 62 67 68 68 69 67 64 65 68 69 65 66 62 64 67 64 56 45 48 38 27 32 13 12
203 223 259 257 265 141 179 215 117 102 55 175 163 75 91 229 135 230 205 160 258 327 324 199 208 191 168 166 262 29 49 47 59 100 120 127 124 126 137 160 171 172 156 125 131 119 132 165 170 135 115 112 104 103 97 86 85 84 86 85 84 88 83 77 77 75 80 77 74 70 69 67 68 66 63 57 50 47 53 44 49 30 27 19 12 3
49 292 279 315 81 145 187 154 204 139 206 211 105 196 211 150 109 77 17 37 66 46 257 158 309 294 305 73 20 358 73 47 84 114 133 146 152 158 175 183 187 189 180 190 194 193 184 195 208 164 133 123 112 106 102 103 104 106 105 101 95 90 85 80 80 83 83 84 80 68 66 58 58 58 56 50 41 35 24 30 23 24 7 8 14 5
156 238 287 124 235 351 301 145 105 31 148 97 172 235 152 132 117 139 229 351 63 208 268 93 212 271 70 284 53 26 96 161 173 170 167 169 168 178 197 192 192 189 193 201 209 211 200 188 173 170 152 140 135 124 116 112 115 107 109 108 103 92 86 82 82 79 75 72 67 64 62 64 63 53 46 41 31 21 21 17 20 11 11 11 0 3
122 282 288 291 129 308 357 95 38 348 36 149 192 208 121 231 208 304 85 270 265 256 269 298 274 256 188 240 97 243 194 199 194 197 177 195 197 198 198 199 193 193 183 190 202 198 196 188 180 168 156 155 139 130 119 118 113 108 97 92 95 96 95 96 87 83 72 68 69 64 56 50 40 31 27 23 22 18 18 12 9 9 3 359 1 2
56 214 293 334 111 321 27 91 202 218 333 79 83 70 122 110 185 120 203 181 119 267 22 287 26 259 195 221 183 208 195 181 177 188 205 199 193 193 192 186 187 185 186 190 193 196 187 187 184 170 159 151 143 132 122 111 108 94 92 88 86 82 83 73 66 67 61 55 57 46 43 42 43 36 28 24 24 21 21 11 6 1 1 358 356 0
198 125 236 296 308 61 193 189 210 166 165 105 139 258 190 349 220 102 17 136 184 182 209 265 295 276 264 202 185 210 181 182 180 193 197 194 194 196 193 185 182 182 185 190 189 186 184 180 179 173 166 150 125 119 122 118 120 126 96 88 82 89 73 68 49 48 41 40 36 43 33 27 31 24 23 21 18 19 11 10 7 6 353 347 3 359
107 162 217 336 157 220 238 255 224 190 191 178 175 198 184 137 181 219 257 83 125 133 234 187 259 280 262 155 188 169 185 182 206 192 185 188 191 194 197 192 179 183 188 187 188 182 179 180 174 174 140 126 128 130 136 153 127 119 112 114 99 70 36 41 31 28 22 33 42 45 30 28 29 24 19 17 10 10 6 3 4 357 358 359 354 3
162 153 127 222 204 205 228 278 248 228 219 199 169 238 174 169 107 139 238 237 33 247 119 191 318 266 302 244 245 221 209 207 190 165 177 180 192 201 201 185 186 189 185 185 183 181 181 177 174 172 168 163 165 171 166 164 123 77 43 39 30 54 29 41 42 39 51 53 49 37 38 36 28 21 19 15 8 8 0 360 356 358 0 354 351 353
96 145 228 276 331 314 316 291 1 141 114 61 11 93 128 189 195 208 226 185 186 260 212 291 232 247 284 334 285 244 214 203 168 170 175 187 196 200 183 183 189 190 191 186 183 177 178 174 169 166 172 174 177 183 159 78 61 63 53 49 59 58 46 44 40 50 49 47 47 40 36 32 20 17 10 11 5 3 355 356 354 353 360 352 353 350
127 266 164 241 310 343 343 336 341 329 57 164 198 229 173 99 79 124 95 122 182 207 186 159 248 246 250 334 4 58 87 141 183 199 184 181 193 193 189 191 194 193 185 184 181 177 172 173 177 186 183 186 182 114 89 93 78 79 70 63 71 69 58 56 45 53 45 45 39 32 31 16 13 5 1 0 358 351 350 352 352 355 357 352 352 349
121 185 135 205 223 227 222 194 213 221 214 218 233 320 252 150 143 112 224 186 226 178 165 205 251 249 267 324 53 39 101 149 203 208 233 220 196 190 191 190 192 190 191 182 174 174 184 183 185 182 189 169 141 148 129 116 106 90 82 66 62 66 52 39 42 41 43 38 42 33 28 2 355 343 344 347 338 332 335 343 356 354 353 350 347 342
170 178 171 212 227 242 248 195 277 87 74 187 235 182 223 154 211 174 112 186 214 224 212 238 243 344 286 161 251 233 212 194 204 202 205 210 219 211 208 202 196 193 186 184 185 182 172 185 188 187 171 155 160 146 127 114 103 97 90 72 55 55 60 51 53 52 57 66 82 91 351 331 317 331 354 337 323 331 351 0 359 352 345 346 343 328
92 199 224 217 232 243 197 197 207 172 203 220 199 242 213 185 175 179 206 224 135 127 249 227 135 176 256 255 202 219 226 238 256 235 221 245 233 207 207 205 195 178 182 179 179 182 187 187 185 175 161 158 147 121 106 97 109 111 104 101 84 66 67 61 81 90 100 114 102 66 354 343 310 339 337 314 332 344 356 353 346 346 342 336 333 330
162 218 218 153 246 176 223 183 110 91 203 183 204 223 223 204 173 200 217 192 179 205 254 243 147 205 253 254 185 202 205 202 212 213 210 212 217 203 171 183 192 198 194 191 197 189 182 185 185 169 168 160 142 136 127 122 113 108 101 99 103 98 91 88 95 74 76 71 72 1 319 294 310 329 318 333 344 346 354 354 350 346 343 342 341 346
92 249 183 141 197 72 333 11 24 137 329 308 255 241 233 217 222 208 223 232 216 243 268 276 282 254 243 255 167 217 207 197 218 223 232 228 228 213 205 207 203 203 198 199 197 192 188 185 171 169 162 158 157 150 146 140 142 141 137 136 131 113 122 107 121 118 129 131 144 265 264 271 317 2 343 355 356 360 355 352 350 348 347 348 347 341
132 273 97 305 104 281 317 326 9 52 245 275 275 267 249 231 200 208 227 241 313 294 267 268 264 264 264 233 205 249 211 227 295 243 219 222 223 215 207 214 213 208 207 203 194 192 190 177 166 163 165 169 169 165 158 156 149 142 130 140 141 143 145 130 138 142 143 146 132 230 2 26 16 3 2 1 357 356 355 349 347 342 339 341 342 337
120 240 64 74 148 285 31 67 53 44 35 257 269 261 259 273 265 248 234 193 198 231 241 251 259 259 263 91 141 106 154 190 218 233 236 234 226 216 217 224 218 211 203 199 196 187 181 178 174 175 178 176 174 164 157 154 153 145 149 146 154 158 162 153 138 109 71 50 14 13 16 10 6 2 357 357 355 351 348 342 341 338 336 334 335 334
177 136 141 127 207 224 214 91 114 81 10 296 253 248 211 225 237 268 331 211 217 208 212 224 239 243 263 123 171 254 202 224 235 238 249 253 232 214 221 222 217 207 201 193 188 190 190 187 184 180 179 174 170 168 171 155 152 163 160 164 176 163 161 134 95 79 58 43 13 25 18 8 4 355 352 350 348 341 339 338 333 332 332 329 325 322
119 150 166 184 190 168 72 98 77 76 237 241 25 131 178 214 219 225 242 239 226 153 208 211 242 277 335 270 245 255 246 225 222 234 216 223 225 214 227 229 218 205 197 195 192 191 191 180 182 183 176 171 168 161 153 156 153 154 155 165 158 143 120 104 84 84 67 47 26 33 13 5 359 348 340 337 336 334 330 330 324 319 315 312 318 318
164 173 166 151 142 199 156 38 243 217 242 24 165 127 184 179 160 213 244 261 243 225 234 260 266 255 236 229 233 246 260 289 278 262 261 231 201 206 210 210 200 191 193 191 194 195 186 181 171 157 153 162 158 148 142 147 146 148 158 160 132 117 110 97 101 72 63 51 30 33 4 360 346 335 329 329 327 326 321 317 314 314 313 315 314 316
175 154 144 79 117 46 101 200 236 240 263 189 247 164 153 100 150 177 292 263 246 224 210 225 245 241 241 248 261 282 283 284 300 252 237 244 201 200 193 203 202 189 190 196 189 191 177 178 176 176 175 151 146 157 162 160 158 153 140 120 115 107 102 102 90 70 67 37 17 15 349 346 330 323 322 319 318 315 313 312 309 313 314 310 306 296
168 98 135 209 180 204 202 205 240 354 309 288 274 164 169 180 193 173 242 268 247 196 186 202 235 251 246 266 310 2 322 39 339 294 272 213 220 218 201 209 188 196 198 198 189 187 186 177 171 166 145 155 162 160 167 156 144 131 119 104 103 101 99 94 71 51 35 359 354 343 334 324 322 315 314 314 314 311 310 313 312 310 312 308 305 306
280 180 213 201 245 159 184 236 289 251 250 258 249 104 249 196 142 189 161 279 312 266 201 178 219 243 234 6 157 189 62 66 296 273 263 253 202 211 238 235 217 204 197 175 130 132 148 148 128 138 154 153 154 157 145 143 133 124 118 123 121 107 99 86 218 231 224 276 307 312 314 316 315 311 310 312 308 306 305 304 299 299 307 304 307 305
10 79 209 210 214 66 195 216 221 235 247 241 197 178 227 136 142 103 69 299 269 213 223 174 205 208 183 166 184 143 109 186 249 254 256 239 227 206 209 226 207 202 188 176 171 165 173 166 154 145 139 147 152 155 147 139 134 123 127 134 132 119 125 196 213 208 217 241 282 290 299 304 308 304 303 301 300 301 302 303 300 300 299 289 290 290
95 20 129 239 216 222 224 234 240 228 253 266 214 235 167 137 93 70 33 276 265 239 198 158 180 194 203 191 155 161 156 202 243 255 230 205 204 201 190 187 179 192 195 182 190 168 150 133 125 138 156 171 168 149 152 143 127 129 135 146 128 144 207 216 206 208 200 243 274 283 295 298 298 295 294 294 296 296 291 294 297 295 295 292 286 291
173 257 220 210 221 230 231 250 293 285 272 197 171 185 167 158 78 108 223 234 232 198 205 175 196 195 176 165 169 178 224 201 210 237 236 185 154 215 235 229 198 184 180 176 165 132 142 160 166 172 176 163 149 151 153 144 134 136 138 145 154 218 222 204 185 191 223 264 277 281 283 288 282 287 286 282 288 291 292 290 290 294 292 291 291 285
342 74 326 318 223 225 224 242 237 270 237 174 261 148 170 93 216 220 234 201 156 206 201 197 200 210 175 184 188 207 224 228 243 310 196 185 192 195 187 167 116 77 57 95 137 147 149 157 151 132 128 143 151 154 154 146 130 139 149 155 221 228 188 172 188 207 233 262 270 277 282 279 280 272 277 284 289 292 288 283 279 283 287 285 288 290
191 145 207 201 200 60 133 227 266 254 258 134 144 65 268 153 234 196 172 227 193 190 186 214 211 223 172 215 214 216 235 251 221 218 205 202 192 196 185 165 174 177 168 147 155 191 160 160 170 172 163 159 160 156 156 133 139 163 170 206 231 189 174 183 189 213 237 270 276 276 275 273 275 279 281 284 281 282 286 287 287 281 279 285 287 285
208 107 240 260 189 159 188 197 208 224 118 164 137 177 209 207 195 166 139 211 211 183 196 200 224 213 196 200 214 230 237 245 264 246 250 252 232 231 201 199 198 192 193 200 185 177 174 170 167 164 166 165 163 158 154 144 155 177 192 230 178 169 172 173 185 199 272 272 271 275 276 273 277 277 279 279 283 280 282 287 284 281 276 278 282 288
209 188 177 183 214 161 198 215 213 136 158 201 180 190 204 216 192 181 163 193 188 226 190 175 224 220 201 206 221 220 236 231 231 216 199 220 217 205 195 199 196 195 194 192 193 177 176 177 176 166 165 172 164 163 157 155 159 181 200 233 159 178 162 186 185 238 262 267 271 274 274 281 280 282 280 277 276 281 282 284 285 290 279 275 282 280
285 191 183 83 252 273 273 214 105 26 176 195 232 215 207 231 236 177 200 223 235 211 167 188 218 213 209 206 208 245 229 238 234 232 218 233 230 230 222 220 223 218 194 158 145 171 177 146 148 161 171 180 179 169 165 170 161 177 213 177 164 169 170 177 191 249 259 268 274 277 288 297 292 283 276 273 265 261 267 275 286 283 288 283 277 276
243 154 152 195 260 137 258 118 158 212 182 181 210 231 240 237 226 196 208 218 227 212 209 223 213 209 209 191 198 220 233 231 230 233 223 226 234 235 220 212 211 197 186 191 187 152 151 159 165 180 181 186 193 182 181 174 188 190 183 176 178 175 168 166 198 241 267 275 278 286 292 292 292 290 279 271 270 264 268 270 269 272 277 277 279 279
307 178 164 223 190 192 242 204 221 254 40 215 203 212 232 242 236 199 208 216 220 228 206 220 211 240 189 189 210 213 232 233 220 231 230 225 228 229 223 218 214 203 209 182 154 165 155 172 182 182 183 193 189 183 184 185 192 199 196 204 189 173 150 183 210 239 258 270 277 286 288 286 282 283 288 280 279 283 282 267 258 266 266 270 273 280
184 105 231 176 200 247 7 281 210 84 299 262 247 246 236 227 228 217 216 229 238 248 251 252 198 223 210 224 214 212 228 242 225 220 224 234 236 235 227 219 210 204 177 164 175 171 183 182 182 184 181 191 174 174 179 192 203 189 186 196 186 163 162 211 236 249 268 273 289 284 282 275 278 281 284 288 279 262 256 275 278 270 269 248 240 245
85 240 194 104 229 210 171 220 191 168 251 239 227 226 229 231 218 232 222 222 234 236 240 244 251 233 229 233 215 198 216 239 238 215 227 231 232 230 229 216 197 181 181 176 151 173 168 172 174 172 182 183 166 170 179 197 203 196 193 189 182 157 172 207 228 253 270 274 275 276 279 280 279 280 282 283 290 294 285 260 276 278 276 281 281 279
199 225 150 203 221 231 216 229 212 206 248 247 240 232 226 221 196 225 238 239 241 231 229 227 244 259 241 240 216 200 218 229 241 227 225 237 234 227 220 192 176 177 175 161 154 173 178 176 170 163 174 177 167 175 184 194 195 188 201 188 188 167 187 182 205 240 260 269 268 267 272 277 281 280 275 276 284 288 298 307 295 290 288 287 286 290